Location: Running Springs
(34.2078°N, 117.1092°W)
Time: 15:20:18
(UTC+00:00)

Cosmos 921 Rocket - Pass Details

Date: 13 April 2024
Orbit: 568 x 626 km, 75.8° (Epoch: 27 May)

Event Time Altitude Azimuth Distance (km) Brightness Sun altitude
Exits shadow 12:20:27 19° 248° (WSW) 1,404 4.2 -12.5°
Maximum altitude 12:22:29 28° 291° (WNW) 1,117 4.0 -12.1°
Drops below altitude 10° 12:26:09 10° 350° (N) 1,921 5.7 -11.4°
Sets 12:28:40 0° 3° (N) 2,837 6.8 -10.9°
